Regional Weather Roundup
Issued by NWS Newport/Morehead, NC

Current Version | Previous Version | Graphics & Text | Print | Product List | Glossary Off
Versions: 1 2 3 4 5 6 7 8 9 10 11 12 13 14 15 16 17 18 19 20 21 22 23 24 25 26 27 28 29 30 31 32 33 34 35 36 37 38 39 40 41 42 43 44 45 46 47 48 49 50

000
ASUS42 KMHX 180813
RWRMHX
WEATHER ROUNDUP FOR EASTERN NORTH CAROLINA
NATIONAL WEATHER SERVICE NEWPORT/MOREHEAD CITY NC
400 AM EDT WED OCT 18 2017

NOTE: "FAIR" INDICATES FEW OR NO CLOUDS BELOW 12,000 FEET
WITH NO SIGNIFICANT WEATHER AND/OR OBSTRUCTIONS TO VISIBILITY

NCZ015>017-031-032-045>047-102-103-180900-
NORTH COAST

CITY           SKY/WX    TMP DP  RH WIND       PRES   REMARKS
EDENTON        CLEAR     49  44  85 CALM      30.32S
ELIZABETH CITY PTCLDY    52  48  86 N10       30.31S
KITTY HAWK     SUNNY     58  47  66 CALM      30.28S
MANTEO         CLEAR    N/A N/A N/A NE9       30.29S

$$

NCZ045>047-081-094-103-104-180900-
CENTRAL COAST

CITY           SKY/WX    TMP DP  RH WIND       PRES   REMARKS
FRISCO         CLEAR     62  53  72 NE8G17    30.26S

$$

NCZ095-097-098-100-101-180900-
SOUTHERN COAST

CITY           SKY/WX    TMP DP  RH WIND       PRES   REMARKS
BEAUFORT       CLEAR     52  50  93 N8        30.27S
CEDAR ISLAND   NOT AVBL
JACKSONVILLE   CLEAR     49  46  90 N12       30.28S
PINEY ISLAND     N/A    N/A N/A N/A N10       30.27S
WILMINGTON     CLEAR     47  44  90 NE3       30.28S


$$

NCZ011>013-027>030-043-044-078>080-089-090>093-098-180900-
COASTAL PLAIN

CITY           SKY/WX    TMP DP  RH WIND       PRES   REMARKS
AHOSKIE        PTCLDY    38  38 100 CALM      30.33S
CLINTON        CLEAR     44  43  98 CALM      30.31F
ELIZABETHTOWN  NOT AVBL
GOLDSBORO      CLEAR     43  40  88 CALM      30.29F
GREENVILLE     CLEAR     41  41 100 CALM      30.32S FOG
HAVELOCK       CLEAR     53  50  89 N8        30.29F
KENANSVILLE    CLEAR     39  37  93 CALM      30.31S
KINSTON        CLEAR     40  39  97 N3        30.31F
NEW BERN       CLEAR     50  47  89 N7        30.30F
RICHLANDS      CLEAR     42  41  96 N3        30.30F
ROCKY MOUNT    CLEAR     41  41 100 CALM      30.33R
WASHINGTON     CLEAR     45  43  92 N6        30.31S
WHITEVILLE     CLEAR     46  44  90 CALM      30.28F

$$

AMZ130-135-150-152-154-156-158-170-250-252-270-ANZ085-086-088-633-658-670-180900-
MARINE OBSERVATIONS

STATION/POSITION TIME  TEMP    WIND        PRES    WAVE   SWELL
                       AIR SEA DIR/SP/G            HT/PER HT/PER
                 (UTC) (F)     (DEG/KT/KT) (MB)    (FT/S) (FT/S)
CHESAPEAKE LIGHT NOT AVBL
64 E VA BEACH    0750   61 67   20/ 12/ 17 1025.9    5/ 7   5/ 7
DUCK             0748   60 68   30/ 13/ 16 1025.3
2 E DUCK         0800      70                N/A     4/ 8   2/11
OREGON INLET     0742   60 65   30/  8/ 11 1025.1
13E OREGON INLT  0748      71                N/A     5/ 8   5/ 8
HATTERAS CG      0748   62 68   30/ 13/ 19 1024.3
DIAMOND BUOY     0750   67 81   20/ 21/ 25 1023.1    7/ 9   3/ 9
CAPE LOOKOUT     0800   58      10/ 14/ 18 1024.1
BEAUFORT LAB     0748   56 68  360/  9/ 12 1025.0
30 SE NEW RVR IN 0708   64      30/ 17/ 25 1023.8
30 SE NEW RVR IN NOT AVBL
27 SE WRIGHTSVLE 0708   64 77   60/ 17/ 23 1023.7
5 SE WRIGHTSVLE  0708   62 75   50/ 16/ 25 1024.6
225 S CAPE HAT   0750   74 79   40/ 19/ 23 1018.8   10/10   5/10
41 SE CHARLESTON 0800   70 80   40/ 17/ 21 1021.8

$$




USA.gov is the U.S. government's official web portal to all federal, state and local government web resources and services.